Location: B?dargowo
(53.3916°N, 14.4413°E)
Time: 10:40:08
(UTC+00:00)

Cosmos 2228 - Pass Details

Date: 05 February 2023
Orbit: 585 x 613 km, 82.5° (Epoch: 19 March)

Event Time Altitude Azimuth Distance (km) Brightness Sun altitude
Rises 17:13:23 0° 343° (NNW) 2,829 6.5 -12.2°
Reaches altitude 10° 17:15:41 10° 336° (NNW) 1,922 5.8 -12.6°
Maximum altitude 17:19:37 39° 268° (W) 894 4.5 -13.2°
Drops below altitude 10° 17:23:32 10° 199° (SSW) 1,908 5.9 -13.7°
Sets 17:25:49 0° 192° (SSW) 2,805 6.7 -14.1°
